BEE99Z EGAC-EGJJ

Flight info

Callsign BEE99Z
Flight time 1h 21m
Altitude 25000
Route DUFFY L15 PEPOD Q38 MALUD L15 RISLA N862 KARNO/N0359F230 N862 PACSE/N0358F240 N92 WIGGU/N0359F230 N864 ABBEW N90 ENHEL N862 SKERY
Aircraft DH8D/M-SDE2E3FGRY/H

Departure

Time 2026-05-07 10:47
Airport George Best Belfast City Airport (EGAC)

Arrival

Time 2026-05-07 12:09
Airport Jersey Airport (EGJJ)
Time Latitude Longitude Altitude Speed Heading
2026-05-07 10:04 54.61496 -5.87143 14 ft 0 kts 156°
2026-05-07 10:35 54.61495 -5.87143 14 ft 0 kts 156°
2026-05-07 10:35 54.61496 -5.87143 14 ft 0 kts 156°
2026-05-07 10:35 54.61508 -5.87152 14 ft 2 kts 156°
2026-05-07 10:36 54.61522 -5.87162 15 ft 2 kts 156°
2026-05-07 10:36 54.61535 -5.87172 15 ft 0 kts 156°
2026-05-07 10:36 54.61542 -5.87181 15 ft 1 kts 106°
2026-05-07 10:36 54.61541 -5.87196 16 ft 2 kts 67°
2026-05-07 10:37 54.61533 -5.87218 16 ft 2 kts 46°
2026-05-07 10:37 54.61527 -5.87227 16 ft 0 kts 34°
2026-05-07 10:40 54.61531 -5.87223 16 ft 1 kts 34°
2026-05-07 10:40 54.61547 -5.87204 16 ft 4 kts 34°
2026-05-07 10:40 54.61581 -5.87163 15 ft 7 kts 34°
2026-05-07 10:40 54.61626 -5.87109 15 ft 8 kts 35°
2026-05-07 10:41 54.61676 -5.87049 15 ft 8 kts 35°
2026-05-07 10:41 54.61731 -5.86993 15 ft 9 kts 10°
2026-05-07 10:41 54.61765 -5.87012 15 ft 0 kts 309°
2026-05-07 10:42 54.61774 -5.87033 16 ft 6 kts 304°
2026-05-07 10:43 54.61812 -5.87127 18 ft 10 kts 303°
2026-05-07 10:43 54.61908 -5.87134 18 ft 24 kts 34°
2026-05-07 10:43 54.62093 -5.86913 15 ft 37 kts 35°
2026-05-07 10:43 54.62289 -5.86677 18 ft 30 kts 35°
2026-05-07 10:44 54.62411 -5.86505 18 ft 14 kts 63°
2026-05-07 10:44 54.62456 -5.86459 18 ft 5 kts 292°
2026-05-07 10:44 54.62447 -5.86489 18 ft 0 kts 214°
2026-05-07 10:47 54.62271 -5.86698 18 ft 76 kts 214°
2026-05-07 10:47 54.61626 -5.87474 32 ft 141 kts 215°
2026-05-07 10:47 54.60788 -5.88481 466 ft 156 kts 211°
2026-05-07 10:47 54.59701 -5.88630 958 ft 172 kts 162°
2026-05-07 10:48 54.58730 -5.87345 1627 ft 182 kts 138°
2026-05-07 10:48 54.57742 -5.86035 2311 ft 184 kts 153°
2026-05-07 10:48 54.56618 -5.84990 2972 ft 186 kts 155°
2026-05-07 10:48 54.55490 -5.83937 3610 ft 187 kts 155°
2026-05-07 10:49 54.54289 -5.82820 3909 ft 206 kts 155°
2026-05-07 10:49 54.53013 -5.81617 4450 ft 210 kts 154°
2026-05-07 10:49 54.51745 -5.80411 5044 ft 212 kts 154°
2026-05-07 10:49 54.50457 -5.79185 5620 ft 215 kts 154°
2026-05-07 10:50 54.49153 -5.77942 6256 ft 216 kts 154°
2026-05-07 10:50 54.47898 -5.76554 6841 ft 221 kts 143°
2026-05-07 10:50 54.46781 -5.74682 7421 ft 225 kts 138°
2026-05-07 10:50 54.45702 -5.72764 8005 ft 228 kts 137°
2026-05-07 10:51 54.44609 -5.70811 8584 ft 230 kts 137°
2026-05-07 10:51 54.43495 -5.68817 9160 ft 233 kts 137°
2026-05-07 10:51 54.42375 -5.66811 9739 ft 236 kts 137°
2026-05-07 10:51 54.41226 -5.64754 10304 ft 239 kts 137°
2026-05-07 10:52 54.40089 -5.62716 10882 ft 241 kts 137°
2026-05-07 10:52 54.38915 -5.60615 11472 ft 244 kts 137°
2026-05-07 10:52 54.37745 -5.58521 12052 ft 246 kts 137°
2026-05-07 10:52 54.36569 -5.56418 12632 ft 248 kts 137°
2026-05-07 10:53 54.35381 -5.54294 13186 ft 250 kts 137°
2026-05-07 10:53 54.34169 -5.52129 13739 ft 252 kts 137°
2026-05-07 10:53 54.32958 -5.49967 14270 ft 255 kts 137°
2026-05-07 10:53 54.31735 -5.47788 14787 ft 257 kts 137°
2026-05-07 10:54 54.30499 -5.45584 15283 ft 259 kts 137°
2026-05-07 10:54 54.29253 -5.43365 15762 ft 261 kts 137°
2026-05-07 10:54 54.27982 -5.41108 16215 ft 263 kts 137°
2026-05-07 10:54 54.26721 -5.38866 16646 ft 266 kts 137°
2026-05-07 10:55 54.25439 -5.36589 17096 ft 267 kts 137°
2026-05-07 10:55 54.24143 -5.34288 17524 ft 268 kts 137°
2026-05-07 10:55 54.22851 -5.31999 17926 ft 271 kts 137°
2026-05-07 10:55 54.21545 -5.29687 18305 ft 272 kts 137°
2026-05-07 10:56 54.20235 -5.27370 18689 ft 274 kts 137°
2026-05-07 10:56 54.18907 -5.25025 19067 ft 275 kts 137°
2026-05-07 10:56 54.17576 -5.22675 19447 ft 276 kts 137°
2026-05-07 10:56 54.16246 -5.20329 19796 ft 278 kts 137°
2026-05-07 10:57 54.14905 -5.17965 20165 ft 278 kts 137°
2026-05-07 10:57 54.13575 -5.15625 20466 ft 279 kts 137°
2026-05-07 10:57 54.12211 -5.13225 20757 ft 279 kts 137°
2026-05-07 10:57 54.10872 -5.10874 21025 ft 280 kts 137°
2026-05-07 10:58 54.09520 -5.08501 21348 ft 280 kts 137°
2026-05-07 10:58 54.08167 -5.06128 21616 ft 281 kts 136°
2026-05-07 10:58 54.06804 -5.03742 21885 ft 282 kts 136°
2026-05-07 10:58 54.05435 -5.01348 22103 ft 283 kts 136°
2026-05-07 10:59 54.04065 -4.98954 22323 ft 284 kts 136°
2026-05-07 10:59 54.02683 -4.96541 22536 ft 286 kts 136°
2026-05-07 10:59 54.01304 -4.94137 22752 ft 286 kts 136°
2026-05-07 10:59 53.99928 -4.91739 22943 ft 287 kts 136°
2026-05-07 11:00 53.98526 -4.89300 23158 ft 288 kts 136°
2026-05-07 11:00 53.97170 -4.86801 23324 ft 290 kts 131°
2026-05-07 11:00 53.95950 -4.84050 23501 ft 291 kts 128°
2026-05-07 11:00 53.94770 -4.81303 23702 ft 291 kts 128°
2026-05-07 11:01 53.93584 -4.78549 23888 ft 291 kts 128°
2026-05-07 11:01 53.92381 -4.75764 24059 ft 292 kts 128°
2026-05-07 11:01 53.91179 -4.72987 24246 ft 292 kts 128°
2026-05-07 11:01 53.89984 -4.70235 24391 ft 292 kts 128°
2026-05-07 11:02 53.88792 -4.67494 24515 ft 292 kts 128°
2026-05-07 11:02 53.87572 -4.64692 24657 ft 293 kts 128°
2026-05-07 11:02 53.86376 -4.61949 24787 ft 293 kts 128°
2026-05-07 11:02 53.85154 -4.59153 24885 ft 295 kts 128°
2026-05-07 11:03 53.83932 -4.56361 24966 ft 298 kts 128°
2026-05-07 11:03 53.82687 -4.53518 24990 ft 302 kts 128°
2026-05-07 11:03 53.81433 -4.50631 24984 ft 304 kts 128°
2026-05-07 11:03 53.80165 -4.47749 24990 ft 309 kts 128°
2026-05-07 11:04 53.78879 -4.44834 24996 ft 313 kts 128°
2026-05-07 11:04 53.77575 -4.41876 24998 ft 317 kts 128°
2026-05-07 11:04 53.76249 -4.38871 24994 ft 320 kts 128°
2026-05-07 11:04 53.74915 -4.35847 24997 ft 323 kts 128°
2026-05-07 11:05 53.73572 -4.32807 24997 ft 321 kts 129°
2026-05-07 11:05 53.72263 -4.29840 24998 ft 318 kts 128°
2026-05-07 11:05 53.70944 -4.26860 24999 ft 318 kts 129°
2026-05-07 11:05 53.69609 -4.23846 24998 ft 318 kts 129°
2026-05-07 11:06 53.68297 -4.20891 25001 ft 318 kts 129°
2026-05-07 11:06 53.66960 -4.17882 25006 ft 321 kts 129°
2026-05-07 11:06 53.65615 -4.14861 25006 ft 323 kts 129°
2026-05-07 11:06 53.64284 -4.11875 25003 ft 325 kts 129°
2026-05-07 11:07 53.62919 -4.08816 25004 ft 327 kts 128°
2026-05-07 11:07 53.61557 -4.05765 25002 ft 327 kts 128°
2026-05-07 11:07 53.60225 -4.02784 25001 ft 326 kts 128°
2026-05-07 11:07 53.58875 -3.99770 25003 ft 325 kts 128°
2026-05-07 11:08 53.57513 -3.96732 25007 ft 325 kts 128°
2026-05-07 11:08 53.56149 -3.93691 25009 ft 327 kts 128°
2026-05-07 11:08 53.54778 -3.90639 25009 ft 327 kts 128°
2026-05-07 11:08 53.53410 -3.87597 25008 ft 327 kts 128°
2026-05-07 11:09 53.52044 -3.84563 25010 ft 328 kts 128°
2026-05-07 11:09 53.50650 -3.81471 25005 ft 327 kts 128°
2026-05-07 11:09 53.49281 -3.78435 25007 ft 326 kts 128°
2026-05-07 11:09 53.47919 -3.75421 25005 ft 324 kts 128°
2026-05-07 11:10 53.46561 -3.72419 25007 ft 325 kts 128°
2026-05-07 11:10 53.45212 -3.69439 25007 ft 325 kts 128°
2026-05-07 11:10 53.43859 -3.66458 25005 ft 323 kts 128°
2026-05-07 11:10 53.42496 -3.63455 25005 ft 321 kts 128°
2026-05-07 11:11 53.41145 -3.60485 25007 ft 320 kts 128°
2026-05-07 11:11 53.39738 -3.57651 25007 ft 319 kts 132°
2026-05-07 11:11 53.38279 -3.54900 25007 ft 320 kts 132°
2026-05-07 11:11 53.36806 -3.52125 25005 ft 320 kts 132°
2026-05-07 11:12 53.35334 -3.49349 25008 ft 320 kts 132°
2026-05-07 11:12 53.33865 -3.46573 25008 ft 320 kts 132°
2026-05-07 11:12 53.32435 -3.43867 25007 ft 317 kts 132°
2026-05-07 11:12 53.30976 -3.41105 25010 ft 316 kts 132°
2026-05-07 11:13 53.29532 -3.38371 25015 ft 315 kts 132°
2026-05-07 11:13 53.28088 -3.35639 25019 ft 316 kts 132°
2026-05-07 11:13 53.26773 -3.33152 25018 ft 317 kts 133°
2026-05-07 11:13 53.25362 -3.30486 25014 ft 317 kts 133°
2026-05-07 11:14 53.23833 -3.27596 25019 ft 319 kts 133°
2026-05-07 11:14 53.22355 -3.24810 25018 ft 320 kts 133°
2026-05-07 11:14 53.20898 -3.22067 25017 ft 321 kts 133°
2026-05-07 11:14 53.19448 -3.19335 25019 ft 320 kts 133°
2026-05-07 11:15 53.17960 -3.16536 25021 ft 321 kts 132°
2026-05-07 11:15 53.16500 -3.13793 25017 ft 321 kts 133°
2026-05-07 11:15 53.15028 -3.11030 25015 ft 321 kts 133°
2026-05-07 11:15 53.13574 -3.08304 25016 ft 320 kts 133°
2026-05-07 11:16 53.12106 -3.05553 25021 ft 320 kts 133°
2026-05-07 11:16 53.10640 -3.02808 25022 ft 321 kts 133°
2026-05-07 11:16 53.09132 -3.00047 25015 ft 321 kts 136°
2026-05-07 11:16 53.07339 -2.98149 25012 ft 319 kts 161°
2026-05-07 11:17 53.05181 -2.97400 25023 ft 320 kts 171°
2026-05-07 11:17 53.02974 -2.96860 25025 ft 321 kts 171°
2026-05-07 11:17 53.00793 -2.96360 25026 ft 321 kts 171°
2026-05-07 11:17 52.98585 -2.95873 25021 ft 321 kts 172°
2026-05-07 11:18 52.96419 -2.95406 25025 ft 321 kts 172°
2026-05-07 11:18 52.94201 -2.94935 25021 ft 321 kts 172°
2026-05-07 11:18 52.91999 -2.94474 25016 ft 320 kts 172°
2026-05-07 11:18 52.89815 -2.94022 25021 ft 319 kts 172°
2026-05-07 11:19 52.87690 -2.93586 25021 ft 318 kts 172°
2026-05-07 11:19 52.85503 -2.93139 25019 ft 319 kts 172°
2026-05-07 11:19 52.83331 -2.92697 25022 ft 320 kts 172°
2026-05-07 11:19 52.81188 -2.92265 25020 ft 319 kts 173°
2026-05-07 11:20 52.78972 -2.92265 25027 ft 321 kts 185°
2026-05-07 11:20 52.76780 -2.92767 25013 ft 320 kts 187°
2026-05-07 11:20 52.74575 -2.93304 25012 ft 319 kts 187°
2026-05-07 11:20 52.72397 -2.93832 25016 ft 319 kts 187°
2026-05-07 11:21 52.70207 -2.94237 25024 ft 320 kts 183°
2026-05-07 11:21 52.67997 -2.94439 25024 ft 320 kts 182°
2026-05-07 11:21 52.65845 -2.94616 25019 ft 320 kts 182°
2026-05-07 11:21 52.63649 -2.94795 25019 ft 321 kts 182°
2026-05-07 11:22 52.61456 -2.94974 25019 ft 322 kts 182°
2026-05-07 11:22 52.59224 -2.95158 25016 ft 323 kts 182°
2026-05-07 11:22 52.56984 -2.95342 25017 ft 324 kts 182°
2026-05-07 11:22 52.54750 -2.95525 25014 ft 323 kts 182°
2026-05-07 11:23 52.52528 -2.95707 25006 ft 325 kts 182°
2026-05-07 11:23 52.50284 -2.95892 25005 ft 325 kts 182°
2026-05-07 11:23 52.48024 -2.96077 25006 ft 325 kts 182°
2026-05-07 11:23 52.45850 -2.96256 25006 ft 325 kts 182°
2026-05-07 11:24 52.43628 -2.96439 25007 ft 325 kts 182°
2026-05-07 11:24 52.41385 -2.96623 25007 ft 324 kts 182°
2026-05-07 11:24 52.39245 -2.96797 25005 ft 320 kts 182°
2026-05-07 11:24 52.37089 -2.96973 25003 ft 317 kts 182°
2026-05-07 11:25 52.34919 -2.97149 25015 ft 315 kts 182°
2026-05-07 11:25 52.32711 -2.97330 25016 ft 315 kts 182°
2026-05-07 11:25 52.30557 -2.97505 25021 ft 315 kts 182°
2026-05-07 11:25 52.28367 -2.97685 25022 ft 317 kts 182°
2026-05-07 11:26 52.26199 -2.97863 25022 ft 319 kts 182°
2026-05-07 11:26 52.23965 -2.98045 25023 ft 322 kts 182°
2026-05-07 11:26 52.21801 -2.98221 25021 ft 322 kts 182°
2026-05-07 11:26 52.19632 -2.98398 25023 ft 321 kts 182°
2026-05-07 11:27 52.17387 -2.98580 25024 ft 322 kts 182°
2026-05-07 11:27 52.15178 -2.98759 25025 ft 322 kts 182°
2026-05-07 11:27 52.12964 -2.98941 25024 ft 323 kts 182°
2026-05-07 11:27 52.10800 -2.99116 25022 ft 321 kts 182°
2026-05-07 11:28 52.08569 -2.99297 25023 ft 322 kts 182°
2026-05-07 11:28 52.06321 -2.99478 25019 ft 323 kts 182°
2026-05-07 11:28 52.04104 -2.99657 25021 ft 323 kts 182°
2026-05-07 11:28 52.01864 -2.99837 25020 ft 323 kts 182°
2026-05-07 11:29 51.99675 -3.00014 25019 ft 324 kts 182°
2026-05-07 11:29 51.97408 -3.00196 25027 ft 325 kts 182°
2026-05-07 11:29 51.95149 -3.00379 25028 ft 325 kts 182°
2026-05-07 11:29 51.92901 -3.00558 25026 ft 324 kts 182°
2026-05-07 11:30 51.90660 -3.00738 25019 ft 323 kts 182°
2026-05-07 11:30 51.88441 -3.00916 25020 ft 323 kts 182°
2026-05-07 11:30 51.86240 -3.01185 25022 ft 324 kts 186°
2026-05-07 11:30 51.84007 -3.01666 25025 ft 324 kts 188°
2026-05-07 11:31 51.81786 -3.02162 25022 ft 324 kts 187°
2026-05-07 11:31 51.79570 -3.02650 25021 ft 324 kts 187°
2026-05-07 11:31 51.77319 -3.03140 25026 ft 325 kts 187°
2026-05-07 11:31 51.75120 -3.03612 25028 ft 324 kts 187°
2026-05-07 11:32 51.70672 -3.04556 25031 ft 325 kts 187°
2026-05-07 11:32 51.68469 -3.05020 25025 ft 325 kts 187°
2026-05-07 11:32 51.66239 -3.05488 25021 ft 324 kts 188°
2026-05-07 11:33 51.64023 -3.05952 25024 ft 325 kts 188°
2026-05-07 11:33 51.61765 -3.06423 25025 ft 325 kts 188°
2026-05-07 11:33 51.59546 -3.06885 25026 ft 325 kts 188°
2026-05-07 11:33 51.57326 -3.07344 25028 ft 324 kts 188°
2026-05-07 11:34 51.55118 -3.07801 25028 ft 323 kts 188°
2026-05-07 11:34 51.52915 -3.08257 25029 ft 322 kts 188°
2026-05-07 11:34 51.50690 -3.08716 25032 ft 323 kts 188°
2026-05-07 11:34 51.48526 -3.09163 25029 ft 321 kts 188°
2026-05-07 11:35 51.46318 -3.09617 25030 ft 322 kts 188°
2026-05-07 11:35 51.44105 -3.10073 25033 ft 323 kts 188°
2026-05-07 11:35 51.41900 -3.10528 25033 ft 322 kts 188°
2026-05-07 11:35 51.39709 -3.10978 25033 ft 320 kts 188°
2026-05-07 11:36 51.37554 -3.11686 25007 ft 320 kts 202°
2026-05-07 11:36 51.35702 -3.13561 25054 ft 317 kts 218°
2026-05-07 11:36 51.33988 -3.15721 25044 ft 318 kts 219°
2026-05-07 11:36 51.32262 -3.17907 25034 ft 318 kts 219°
2026-05-07 11:37 51.30515 -3.20118 25032 ft 321 kts 219°
2026-05-07 11:37 51.28771 -3.22322 25032 ft 322 kts 219°
2026-05-07 11:37 51.26997 -3.24559 25031 ft 323 kts 219°
2026-05-07 11:37 51.25245 -3.26762 25030 ft 323 kts 219°
2026-05-07 11:38 51.23491 -3.28965 25030 ft 322 kts 219°
2026-05-07 11:38 51.21745 -3.31153 25031 ft 324 kts 219°
2026-05-07 11:38 51.19940 -3.33310 25016 ft 325 kts 213°
2026-05-07 11:38 51.17825 -3.34485 25052 ft 325 kts 192°
2026-05-07 11:39 51.15573 -3.34967 25025 ft 327 kts 189°
2026-05-07 11:39 51.13318 -3.35409 25019 ft 327 kts 189°
2026-05-07 11:39 51.11076 -3.35845 25022 ft 328 kts 189°
2026-05-07 11:39 51.08818 -3.36287 25024 ft 326 kts 189°
2026-05-07 11:40 51.06574 -3.36729 25026 ft 326 kts 189°
2026-05-07 11:40 51.04322 -3.37174 25026 ft 327 kts 189°
2026-05-07 11:40 51.02060 -3.37623 25024 ft 327 kts 189°
2026-05-07 11:40 50.99833 -3.38064 25022 ft 326 kts 189°
2026-05-07 11:41 50.97581 -3.38509 25028 ft 327 kts 189°
2026-05-07 11:41 50.95296 -3.38963 25029 ft 329 kts 189°
2026-05-07 11:41 50.93038 -3.39412 25031 ft 330 kts 189°
2026-05-07 11:41 50.90767 -3.39862 25031 ft 329 kts 189°
2026-05-07 11:42 50.88520 -3.40307 25030 ft 330 kts 189°
2026-05-07 11:42 50.86252 -3.40758 25030 ft 329 kts 189°
2026-05-07 11:42 50.83988 -3.41206 25034 ft 329 kts 189°
2026-05-07 11:42 50.81712 -3.41656 25032 ft 328 kts 189°
2026-05-07 11:43 50.79463 -3.42101 25033 ft 328 kts 189°
2026-05-07 11:43 50.77190 -3.42551 25034 ft 328 kts 189°
2026-05-07 11:43 50.74941 -3.42995 25033 ft 328 kts 189°
2026-05-07 11:43 50.72703 -3.43436 25030 ft 326 kts 189°
2026-05-07 11:44 50.70440 -3.43881 25033 ft 326 kts 189°
2026-05-07 11:44 50.68191 -3.44324 25033 ft 326 kts 189°
2026-05-07 11:44 50.65955 -3.44764 25030 ft 327 kts 189°
2026-05-07 11:44 50.63703 -3.45206 25029 ft 327 kts 189°
2026-05-07 11:45 50.61461 -3.45645 25029 ft 326 kts 189°
2026-05-07 11:45 50.59199 -3.46089 25030 ft 326 kts 189°
2026-05-07 11:45 50.56941 -3.46531 25031 ft 328 kts 188°
2026-05-07 11:45 50.54680 -3.46932 25031 ft 328 kts 188°
2026-05-07 11:46 50.52439 -3.47305 25029 ft 329 kts 188°
2026-05-07 11:46 50.50134 -3.47222 25002 ft 332 kts 169°
2026-05-07 11:46 50.48038 -3.45852 25038 ft 330 kts 155°
2026-05-07 11:46 50.45991 -3.44186 25031 ft 328 kts 155°
2026-05-07 11:47 50.43973 -3.42533 25030 ft 327 kts 155°
2026-05-07 11:47 50.41972 -3.40896 25028 ft 326 kts 155°
2026-05-07 11:47 50.39980 -3.39232 25026 ft 326 kts 153°
2026-05-07 11:47 50.37995 -3.37550 25022 ft 323 kts 155°
2026-05-07 11:48 50.35995 -3.35947 25026 ft 324 kts 155°
2026-05-07 11:48 50.33963 -3.34327 25029 ft 327 kts 155°
2026-05-07 11:48 50.31932 -3.32705 25029 ft 329 kts 155°
2026-05-07 11:48 50.29916 -3.31091 25029 ft 331 kts 155°
2026-05-07 11:49 50.27845 -3.29431 25029 ft 332 kts 155°
2026-05-07 11:49 50.25813 -3.27804 25028 ft 333 kts 155°
2026-05-07 11:49 50.23731 -3.26153 25026 ft 334 kts 156°
2026-05-07 11:49 50.21575 -3.25017 25039 ft 331 kts 168°
2026-05-07 11:50 50.19321 -3.24210 25029 ft 330 kts 169°
2026-05-07 11:50 50.17115 -3.23433 25026 ft 329 kts 169°
2026-05-07 11:50 50.14876 -3.22643 25027 ft 329 kts 169°
2026-05-07 11:50 50.12666 -3.21859 25027 ft 328 kts 169°
2026-05-07 11:51 50.10444 -3.21069 25027 ft 327 kts 169°
2026-05-07 11:51 50.08223 -3.20277 25026 ft 325 kts 169°
2026-05-07 11:51 50.06039 -3.19497 25029 ft 325 kts 169°
2026-05-07 11:51 50.03815 -3.18702 25028 ft 324 kts 168°
2026-05-07 11:52 50.01636 -3.17923 25028 ft 324 kts 168°
2026-05-07 11:52 49.99506 -3.16834 25010 ft 325 kts 154°
2026-05-07 11:52 49.97574 -3.14973 24914 ft 330 kts 148°
2026-05-07 11:52 49.95707 -3.13039 24537 ft 319 kts 148°
2026-05-07 11:53 49.93881 -3.11138 23715 ft 321 kts 148°
2026-05-07 11:53 49.92026 -3.09217 22978 ft 318 kts 148°
2026-05-07 11:53 49.90202 -3.07335 22271 ft 316 kts 148°
2026-05-07 11:53 49.88393 -3.05475 21589 ft 312 kts 148°
2026-05-07 11:54 49.86587 -3.03623 20916 ft 309 kts 148°
2026-05-07 11:54 49.84808 -3.01808 20406 ft 310 kts 148°
2026-05-07 11:54 49.83026 -2.99990 20019 ft 301 kts 148°
2026-05-07 11:54 49.81319 -2.98248 19267 ft 300 kts 148°
2026-05-07 11:55 49.79570 -2.96468 18565 ft 301 kts 148°
2026-05-07 11:55 49.77842 -2.94716 18117 ft 299 kts 148°
2026-05-07 11:55 49.76104 -2.92954 17711 ft 294 kts 148°
2026-05-07 11:55 49.74440 -2.91266 17142 ft 292 kts 148°
2026-05-07 11:56 49.72727 -2.89533 16587 ft 291 kts 148°
2026-05-07 11:56 49.71064 -2.87851 16118 ft 285 kts 148°
2026-05-07 11:56 49.69404 -2.86170 15474 ft 284 kts 148°
2026-05-07 11:56 49.67783 -2.84532 14966 ft 277 kts 148°
2026-05-07 11:57 49.66187 -2.82921 14501 ft 276 kts 148°
2026-05-07 11:57 49.64582 -2.81306 14035 ft 276 kts 148°
2026-05-07 11:57 49.62985 -2.79698 13588 ft 274 kts 148°
2026-05-07 11:57 49.61390 -2.78093 13141 ft 273 kts 148°
2026-05-07 11:58 49.59855 -2.76549 12705 ft 272 kts 148°
2026-05-07 11:58 49.58272 -2.74960 12253 ft 269 kts 148°
2026-05-07 11:58 49.56710 -2.73392 11772 ft 268 kts 148°
2026-05-07 11:58 49.55184 -2.71860 11308 ft 264 kts 149°
2026-05-07 11:59 49.53651 -2.70322 10867 ft 263 kts 149°
2026-05-07 11:59 49.52122 -2.68790 10426 ft 261 kts 149°
2026-05-07 11:59 49.50602 -2.67269 9989 ft 259 kts 149°
2026-05-07 11:59 49.49129 -2.65797 9588 ft 254 kts 149°
2026-05-07 12:00 49.47642 -2.64310 9176 ft 252 kts 148°
2026-05-07 12:00 49.46192 -2.62862 8770 ft 248 kts 148°
2026-05-07 12:00 49.44782 -2.61451 8365 ft 246 kts 147°
2026-05-07 12:00 49.43323 -2.60091 7947 ft 241 kts 153°
2026-05-07 12:01 49.41819 -2.58992 7548 ft 240 kts 155°
2026-05-07 12:01 49.40317 -2.57940 7147 ft 238 kts 155°
2026-05-07 12:01 49.38812 -2.56886 6744 ft 237 kts 155°
2026-05-07 12:01 49.37333 -2.55848 6343 ft 235 kts 155°
2026-05-07 12:02 49.35835 -2.54797 5939 ft 235 kts 155°
2026-05-07 12:02 49.34373 -2.53769 5538 ft 233 kts 155°
2026-05-07 12:02 49.32899 -2.52735 5135 ft 231 kts 154°
2026-05-07 12:02 49.31485 -2.51738 4741 ft 228 kts 154°
2026-05-07 12:03 49.30042 -2.50724 4343 ft 226 kts 154°
2026-05-07 12:03 49.28618 -2.49722 3970 ft 225 kts 154°
2026-05-07 12:03 49.27199 -2.48725 3594 ft 224 kts 154°
2026-05-07 12:03 49.25804 -2.47744 3220 ft 221 kts 154°
2026-05-07 12:04 49.24407 -2.46762 2844 ft 221 kts 154°
2026-05-07 12:04 49.23020 -2.45788 2469 ft 220 kts 154°
2026-05-07 12:04 49.21636 -2.44817 2145 ft 216 kts 153°
2026-05-07 12:04 49.20308 -2.43858 2017 ft 202 kts 149°
2026-05-07 12:05 49.19465 -2.42367 1960 ft 183 kts 105°
2026-05-07 12:05 49.19383 -2.40489 1960 ft 172 kts 95°
2026-05-07 12:05 49.19396 -2.38715 1951 ft 160 kts 92°
2026-05-07 12:05 49.19379 -2.37094 1952 ft 148 kts 94°
2026-05-07 12:06 49.19410 -2.35588 1958 ft 134 kts 88°
2026-05-07 12:06 49.19525 -2.34256 1929 ft 118 kts 87°
2026-05-07 12:06 49.19641 -2.33022 1801 ft 117 kts 88°
2026-05-07 12:06 49.19743 -2.31765 1649 ft 119 kts 89°
2026-05-07 12:07 49.19842 -2.30550 1573 ft 116 kts 88°
2026-05-07 12:07 49.19945 -2.29308 1400 ft 118 kts 88°
2026-05-07 12:07 49.20057 -2.28080 1268 ft 111 kts 88°
2026-05-07 12:07 49.20153 -2.26918 1188 ft 115 kts 90°
2026-05-07 12:08 49.20258 -2.25641 1031 ft 126 kts 84°
2026-05-07 12:08 49.20439 -2.24337 854 ft 124 kts 87°
2026-05-07 12:08 49.20531 -2.23012 660 ft 122 kts 90°
2026-05-07 12:08 49.20623 -2.21734 467 ft 120 kts 88°
2026-05-07 12:09 49.20723 -2.20469 280 ft 116 kts 88°
2026-05-07 12:09 49.20802 -2.19439 276 ft 73 kts 83°
2026-05-07 12:09 49.20856 -2.18812 273 ft 47 kts 83°
2026-05-07 12:09 49.20884 -2.18486 274 ft 9 kts 83°
2026-05-07 12:10 49.20865 -2.18405 275 ft 7 kts 137°
2026-05-07 12:10 49.20822 -2.18377 275 ft 9 kts 173°
2026-05-07 12:10 49.20765 -2.18416 274 ft 8 kts 217°
2026-05-07 12:10 49.20730 -2.18500 271 ft 11 kts 263°
2026-05-07 12:11 49.20718 -2.18626 270 ft 12 kts 261°
2026-05-07 12:11 49.20708 -2.18762 270 ft 13 kts 263°
2026-05-07 12:11 49.20698 -2.18881 270 ft 8 kts 263°
2026-05-07 12:11 49.20692 -2.18956 270 ft 5 kts 263°
2026-05-07 12:12 49.20688 -2.19006 270 ft 4 kts 263°
2026-05-07 12:12 49.20683 -2.19059 271 ft 4 kts 262°
2026-05-07 12:12 49.20679 -2.19105 272 ft 4 kts 262°
2026-05-07 12:12 49.20676 -2.19189 273 ft 10 kts 276°
2026-05-07 12:13 49.20690 -2.19279 275 ft 9 kts 283°
2026-05-07 12:13 49.20709 -2.19411 276 ft 16 kts 276°
2026-05-07 12:13 49.20690 -2.19580 274 ft 15 kts 254°
2026-05-07 12:13 49.20623 -2.19688 272 ft 11 kts 229°
2026-05-07 12:14 49.20607 -2.19795 270 ft 6 kts 264°
2026-05-07 12:14 49.20607 -2.19797 270 ft 0 kts 264°
2026-05-07 12:14 49.20603 -2.19809 270 ft 2 kts 218°
2026-05-07 12:14 49.20584 -2.19812 270 ft 2 kts 171°
2026-05-07 12:15 49.20576 -2.19810 270 ft 2 kts 172°
2026-05-07 12:15 49.20551 -2.19806 270 ft 2 kts 173°
2026-05-07 12:15 49.20550 -2.19805 270 ft 0 kts 173°